Location: Rumah Dana
(3.1167°N, 113.0167°E)
Time: 04:42:04
(UTC+00:00)

YAOGAN 1 - Pass Details

Date: 20 January 2026
Orbit: 605 x 607 km, 97.8° (Epoch: 10 February)

Event Time Altitude Azimuth Distance (km) Brightness Sun altitude
Rises 10:52:27 0° 153° (SSE) 2,858 5.9 -4.2°
Reaches altitude 10° 10:54:47 10° 143° (SE) 1,953 5.0 -4.8°
Maximum altitude 10:58:38 34° 78° (ENE) 997 3.1 -5.7°
Drops below altitude 10° 11:02:29 10° 13° (NNE) 1,946 4.8 -6.6°
Sets 11:04:47 0° 4° (N) 2,847 5.7 -7.1°
